Yellowknife Airport

Airport
ICAO code: 
CYZF
IATA Code: 
YZF
Summary
ICAO Region: 
NAM
Territory: 
Location: 
Yellowknife, Northwest Territories
Serving: 
Yellowknife
Elevation: 
675 ft
Coordinates: 
Aerial View: 
62° 28' 5.351" N, 114° 26' 33.266" W
Airport BS: 
Bird Strike, Non Avian Wildlife Hazards to Aircraft
Airport CFIT: 
Altimeter Temperature Error Correction
Airport GND: 
Aircraft Ground De/Anti Icing
Airport RE: 
Landing on Contaminated Runways
Metar
Observation
CYZF 191600Z 02010G15KT 15SM BKN200 03/M06 A3021 RMK CI6 SLP244
Station
Yellowknife, N. W. T.
Date/Time
2022-05-19 16:00:00
Wind direction
20°
Wind speed
10 kts
Lowest cloud amount
broken clouds
Temperature
3°C
Dew point
-6°C
Humidity
51%
Weather condition
n/a

Description

International airport serving Yellowknife, the capital of the Northwest Territories.

Climatology

Subarctic climate (Köppen climate classification Dfc) - long, usually very cold winters, and short, cool to mild summers.

Runways

Designator Length Width Surface Rops
9/27 1524 46 ASP Yes/Yes
15/33 2286 46 ASP Yes/Yes
Airport map: 
Aerial View: 

Accidents and Serious Incidents at or in the vicinity of CYZF

SKYbrary Partners:

Safety knowledge contributed by: